sat.trackr.live / text

‹ back to catalog

STARLINK-1727

NORAD 46335 · 2020-062L

PAYLOAD ACTIVE UNKNOWN

§ Identity

Operator
Country
US
Launch date
2020-09-03
Launch site
AFETR
Launch vehicle
Mass (kg)
RCS (m²)

Purposes: comms

External: N2YO · Heavens-Above · Gunter

§ Orbital elements

Epoch: 2026-05-29T15:08:40.834752Z

Period
87.92 min
Inclination
53.0163°
Eccentricity
0.0012331
Mean motion
16.37874951 rev/d
Perigee alt
163.4 km
Apogee alt
179.5 km
Semi-major
6,549.6 km
B*
7.2448e-4
RAAN
286.5342°
Arg perigee
296.0215°
Mean anomaly
63.9560°
Rev number
31,772

§ Raw data

STARLINK-17271 46335U 20062L   26149.63102818  .07991487  12384-4  72448-3 0  99972 46335  53.0163 286.5342 0012331 296.0215  63.9560 16.37874951317726

JSON: /api/v1/satellites/46335 · /tle

For live sub-satellite position, see the globe view (requires WebGL).

§ Visibility from observer

Set your observer location to see the next 7 days of passes ≥ 10°. The values pass through the URL so the page stays shareable.

No JS? Fill the form by hand. The geolocation button needs JavaScript.